Sioux City, IA

6:03 AM CDT on March 30, 2017 (GMT -0500)
Sioux Gateway

Weather History for KSUX - December, 2012

Change the Weather History Date:

Sunday, December 30, 2012

  Actual Average Record
Temperature  
Mean Temperature 17 °F 20 °F  
Max Temperature 34 °F 30 °F 66 °F (2004)
Min Temperature 0 °F 10 °F -16 °F (1968)
Degree Days  
Heating Degree Days 48 45  
Month to date heating degree days 1157 1272  
Since 1 July heating degree days 2629 2748  
Cooling Degree Days 0 0  
Month to date cooling degree days 0 0  
Year to date cooling degree days 1249 869  
Moisture  
Dew Point 12 °F    
Average Humidity 80    
Maximum Humidity 95    
Minimum Humidity 64    
Precipitation  
Precipitation 0.00 in 0.02 in 0.97 in (1972)
Month to date precipitation 1.67 0.78  
Year to date precipitation 24.12 27.72  
Snow  
Snow 0.00 in 0.20 in 7.00 in (1923)
Month to date snowfall 9.9 7.6  
Since 1 July snowfall 10.0 13.0  
Snow Depth 4.00 in    
Sea Level Pressure  
Sea Level Pressure 30.12 in    
Wind  
Wind Speed 11 mph (South)    
Max Wind Speed 21 mph    
Max Gust Speed 25 mph    
Visibility 9 miles    
Events      
T = Trace of Precipitation, MM = Missing Value Source: NWS Daily Summary

Daily Weather History Graph

Daily Weather History Graph

Search for Another Location

Airport or City:

Trip Planner

Search our weather history database for the weather conditions in past years. The results will help you decide how hot, cold, wet, or windy it might be!

Date:

Astronomy

Dec. 30, 2012 Rise Set
Actual Time 7:54 AM CST 5:02 PM CST
Civil Twilight 7:22 AM CST 5:34 PM CST
Nautical Twilight 6:47 AM CST 6:09 PM CST
Astronomical Twilight 6:13 AM CST 6:43 PM CST
Moon 7:37 PM CST 9:01 AM CST
Length of Visible Light 10h 11m
Length of Day
9h 07m
Waning Gibbous, 95% of the Moon is Illuminated
Dec 30
Waning Gibbous
Jan 4
Last Quarter
Jan 11
New
Jan 18
First Quarter
Jan 26
Full

Hourly Weather History & Observations

Time (CST) Temp. Windchill Dew Point Humidity Pressure Visibility Wind Dir Wind Speed Gust Speed Precip Events Conditions
12:52 AM 1.9 °F -5.6 °F -0.0 °F 91% 30.27 in 7.0 mi SE 3.5 mph - N/A   Clear
1:52 AM 6.1 °F -2.8 °F 3.0 °F 87% 30.27 in 8.0 mi ESE 4.6 mph - N/A   Clear
2:52 AM 5.0 °F -5.6 °F 1.9 °F 87% 30.27 in 8.0 mi ESE 5.8 mph - N/A   Clear
3:52 AM 3.9 °F -5.3 °F 1.9 °F 91% 30.26 in 9.0 mi ESE 4.6 mph - N/A   Clear
4:52 AM 3.9 °F -8.2 °F 1.0 °F 88% 30.25 in 9.0 mi ESE 6.9 mph - N/A   Clear
5:52 AM 6.1 °F -6.8 °F 3.0 °F 87% 30.23 in 9.0 mi ESE 8.1 mph - N/A   Clear
6:52 AM 7.0 °F -8.3 °F 3.9 °F 87% 30.23 in 9.0 mi ESE 11.5 mph - N/A   Clear
7:52 AM 8.1 °F -5.3 °F 5.0 °F 87% 30.22 in 9.0 mi ESE 9.2 mph - N/A   Clear
8:52 AM 8.1 °F -7.0 °F 6.1 °F 92% 30.18 in 7.0 mi ESE 11.5 mph - N/A   Clear
9:52 AM 12.0 °F -3.4 °F 9.0 °F 88% 30.14 in 8.0 mi ESE 13.8 mph - N/A   Clear
10:52 AM 18.0 °F 6.1 °F 14.0 °F 84% 30.10 in 10.0 mi SSE 10.4 mph - N/A   Clear
11:52 AM 24.1 °F 13.1 °F 17.1 °F 75% 30.06 in 10.0 mi South 11.5 mph - N/A   Clear
12:52 PM 30.9 °F 21.2 °F 21.0 °F 67% 30.00 in 10.0 mi South 12.7 mph - N/A   Clear
1:52 PM 32.0 °F 21.6 °F 23.0 °F 69% 29.96 in 10.0 mi South 15.0 mph 20.7 mph 0.01 in   Clear
2:05 PM 33.8 °F 23.5 °F 23.0 °F 65% 29.91 in 10.0 mi SSW 16.1 mph 24.2 mph N/A   Clear
2:52 PM 34.0 °F 22.7 °F 24.1 °F 67% 29.96 in 10.0 mi SW 19.6 mph - N/A   Clear
3:52 PM 33.1 °F 23.4 °F 23.0 °F 66% 29.98 in 10.0 mi SW 13.8 mph - N/A   Clear
4:52 PM 30.9 °F 20.7 °F 21.9 °F 69% 30.01 in 10.0 mi WSW 13.8 mph - N/A   Clear
5:52 PM 27.0 °F 16.7 °F 17.1 °F 66% 30.04 in 10.0 mi WNW 11.5 mph - N/A   Clear
6:52 PM 24.1 °F 14.4 °F 16.0 °F 71% 30.06 in 10.0 mi West 9.2 mph - N/A   Clear
7:52 PM 19.9 °F 9.3 °F 14.0 °F 78% 30.10 in 10.0 mi WNW 9.2 mph - N/A   Clear
8:52 PM 19.0 °F 6.8 °F 12.0 °F 74% 30.11 in 10.0 mi NW 11.5 mph - N/A   Clear
9:52 PM 19.0 °F 9.0 °F 12.0 °F 74% 30.12 in 10.0 mi NW 8.1 mph - N/A   Clear
10:52 PM 21.0 °F 7.6 °F 14.0 °F 74% 30.15 in 10.0 mi NW 15.0 mph - N/A   Clear
11:52 PM 19.0 °F 5.6 °F 12.9 °F 77% 30.15 in 10.0 mi NNW 13.8 mph - N/A   Clear